DW9456 Weather Reports


time (UTC)temp
F
wind
direction
speed
knots
gust
knots
rain 1hr
in
rain 24hr
in
rain mn
in
humidity
%
barometer
mb
20260505072805 63 234 0.0 0.0 0.00 0.00 0.00 69 1007.2
20260505072301 62 218 0.0 0.0 0.00 0.00 0.00 69 1007.3
20260505071757 62 234 0.0 0.0 0.00 0.00 0.00 69 1007.2
20260505071254 63 201 0.9 4.3 0.00 0.00 0.00 68 1007.5
20260505070751 63 230 0.0 0.0 0.00 0.00 0.00 68 1007.3
20260505070248 63 233 0.0 1.7 0.00 0.00 0.00 67 1007.2
20260505065743 63 213 1.7 4.3 0.00 0.00 0.00 67 1007.5
20260505065240 64 232 2.6 2.6 0.00 0.00 0.00 66 1007.4
20260505064737 64 215 3.5 5.2 0.00 0.00 0.00 66 1007.5
20260505064235 64 227 4.3 5.2 0.00 0.00 0.00 65 1007.4
20260505063732 64 238 0.0 7.0 0.00 0.00 0.00 66 1007.3
20260505063228 64 235 4.3 7.0 0.00 0.00 0.00 64 1007.0
20260505062725 64 232 5.2 8.7 0.00 0.00 0.00 64 1007.1
20260505062223 64 219 0.0 5.2 0.00 0.00 0.00 65 1007.0
20260505061719 65 243 3.5 6.1 0.00 0.00 0.00 65 1007.1
20260505061217 65 211 5.2 7.0 0.00 0.00 0.00 64 1007.0
20260505060714 65 214 5.2 7.8 0.00 0.00 0.00 63 1006.6
20260505060211 65 214 6.1 7.0 0.00 0.00 0.00 64 1006.8
20260505055707 65 219 5.2 8.7 0.00 0.00 0.00 64 1006.7
20260505055203 65 232 7.0 8.7 0.00 0.00 0.00 64 1006.6
20260505054701 65 201 3.5 7.0 0.00 0.00 0.00 64 1006.4
20260505054159 65 236 5.2 11.3 0.00 0.00 0.00 63 1006.6
20260505053656 65 164 4.3 7.8 0.00 0.00 0.00 63 1006.3
20260505053152 65 203 4.3 6.1 0.00 0.00 0.00 63 1006.1
20260505052649 65 202 3.5 7.8 0.00 0.00 0.00 63 1006.2
20260505052147 65 201 2.6 8.7 0.00 0.00 0.00 63 1006.1
20260505051643 66 219 5.2 8.7 0.00 0.00 0.00 63 1006.4
20260505051142 66 184 4.3 7.0 0.00 0.00 0.00 63 1006.0
20260505050639 66 209 6.1 7.8 0.00 0.00 0.00 63 1005.9
20260505050137 65 212 4.3 7.8 0.00 0.00 0.00 63 1006.0
20260505041607 66 203 2.6 5.2 0.00 0.00 0.00 63 1006.5
20260505041104 66 189 5.2 7.0 0.00 0.00 0.00 63 1006.5
20260505040602 66 196 3.5 6.1 0.00 0.00 0.00 63 1006.6
20260505040058 66 209 3.5 7.8 0.00 0.00 0.00 62 1006.9
20260505035555 66 198 1.7 7.0 0.00 0.02 0.02 63 1006.7
20260505035051 66 214 1.7 5.2 0.00 0.02 0.02 63 1006.8
20260505034548 66 195 4.3 7.0 0.00 0.02 0.02 63 1006.7
20260505034045 67 185 4.3 6.1 0.00 0.02 0.02 63 1006.6
20260505033542 67 188 3.5 7.8 0.00 0.02 0.02 62 1006.8
20260505033040 66 185 5.2 6.1 0.00 0.02 0.02 62 1006.9
20260505032538 66 212 5.2 7.0 0.00 0.02 0.02 63 1006.8
20260505032034 66 205 2.6 6.1 0.00 0.02 0.02 64 1007.0
20260505031531 66 209 2.6 5.2 0.00 0.02 0.02 64 1006.6
20260505031027 66 162 3.5 4.3 0.00 0.02 0.02 64 1006.8
20260505030525 66 206 2.6 4.3 0.00 0.02 0.02 65 1006.9
20260505030021 66 204 2.6 5.2 0.00 0.02 0.02 65 1006.8
20260505025516 66 240 2.6 2.6 0.00 0.02 0.02 64 1006.8
20260505025016 66 210 3.5 5.2 0.00 0.02 0.02 63 1006.8
20260505024512 67 184 2.6 4.3 0.00 0.02 0.02 63 1006.7
20260505024009 67 211 2.6 5.2 0.00 0.02 0.02 63 1006.7
20260505023506 66 203 0.0 5.2 0.00 0.02 0.02 63 1006.5
20260505023004 67 203 2.6 4.3 0.00 0.02 0.02 63 1006.4
20260505022501 67 205 2.6 4.3 0.00 0.02 0.02 63 1006.5
20260505021958 66 192 1.7 2.6 0.00 0.02 0.02 63 1006.4
20260505021454 67 206 2.6 4.3 0.00 0.02 0.02 63 1006.1
20260505020950 66 184 2.6 5.2 0.00 0.02 0.02 62 1006.2
20260505020445 66 214 1.7 1.7 0.00 0.02 0.02 62 1006.1
20260505015943 67 208 0.9 1.7 0.00 0.02 0.02 62 1006.0
20260505015440 67 181 0.9 1.7 0.00 0.02 0.02 61 1005.7
20260505014937 67 217 0.0 0.0 0.00 0.02 0.02 61 1005.9
20260505014434 67 207 0.9 2.6 0.00 0.02 0.02 61 1005.7
20260505013931 68 209 0.9 2.6 0.00 0.02 0.02 61 1005.6
20260505013428 67 218 0.0 4.3 0.00 0.02 0.02 62 1005.5
20260505012926 67 215 0.0 0.0 0.00 0.02 0.02 63 1005.6
20260505012424 67 202 0.0 0.0 0.00 0.02 0.02 63 1005.7
20260505011919 67 220 0.0 0.0 0.00 0.02 0.02 62 1005.7
20260505011416 68 235 0.0 0.0 0.00 0.02 0.02 61 1005.6
20260505010913 68 198 0.0 0.0 0.00 0.02 0.02 61 1005.4
20260505010409 68 221 0.0 0.0 0.00 0.02 0.02 60 1005.6
20260505005904 69 195 0.0 2.6 0.00 0.02 0.02 60 1005.5
20260505005402 69 234 0.0 4.3 0.00 0.02 0.02 60 1005.7
20260505004859 69 213 0.0 6.1 0.00 0.02 0.02 59 1005.6
20260505004355 69 204 0.0 0.0 0.00 0.02 0.02 59 1005.5
20260505003853 70 209 0.0 5.2 0.00 0.02 0.02 57 1005.6
20260505003350 70 210 0.9 5.2 0.00 0.02 0.02 57 1005.6
20260505002846 70 211 1.7 7.0 0.00 0.02 0.02 56 1005.6
20260505002343 71 212 0.0 7.8 0.00 0.02 0.02 56 1005.6
20260505001841 71 217 2.6 6.1 0.00 0.02 0.02 55 1005.4
20260505001338 71 217 0.0 5.2 0.00 0.02 0.02 55 1005.7
20260505000835 71 159 0.0 7.0 0.00 0.02 0.02 55 1005.5
20260505000333 71 211 2.6 11.3 0.00 0.02 0.02 55 1006.1
20260504235829 72 209 1.7 7.0 0.00 0.02 0.02 55 1006.0
20260504235326 72 204 5.2 7.8 0.00 0.02 0.02 54 1005.9
20260504234823 73 213 8.7 11.3 0.00 0.02 0.02 53 1005.9
20260504234321 73 232 7.0 11.3 0.00 0.02 0.02 53 1006.0
20260504233817 73 206 7.8 15.6 0.00 0.02 0.02 52 1006.0
20260504233313 73 209 4.3 11.3 0.00 0.02 0.02 52 1006.0
20260504232809 72 223 4.3 6.1 0.00 0.02 0.02 52 1006.0
20260504232307 72 217 4.3 9.6 0.00 0.02 0.02 52 1006.3
20260504231804 73 243 8.7 12.2 0.00 0.02 0.02 49 1006.2
20260504231300 73 191 7.0 12.2 0.00 0.02 0.02 50 1006.3
20260504230756 73 207 10.4 13.0 0.00 0.02 0.02 50 1006.3
20260504230254 73 217 12.2 14.8 0.00 0.02 0.02 50 1006.2
20260504225753 74 220 7.0 13.9 0.00 0.02 0.02 55 1006.2
20260504225249 74 323 4.3 7.0 0.00 0.02 0.02 55 1006.4
20260504224746 74 212 0.9 4.3 0.00 0.02 0.02 55 1006.4
20260504224243 74 196 0.0 0.0 0.00 0.02 0.02 56 1006.4
20260504223739 73 274 0.0 0.0 0.00 0.02 0.02 56 1006.6
20260504223235 73 184 0.0 0.0 0.00 0.02 0.02 55 1006.3
20260504222732 73 228 0.0 0.0 0.00 0.02 0.02 58 1006.6
20260504222229 72 193 0.0 0.0 0.00 0.02 0.02 57 1006.9
20260504221727 72 183 0.0 0.0 0.00 0.02 0.02 57 1006.8
20260504221224 72 207 0.0 0.0 0.00 0.02 0.02 59 1006.8
20260504220720 71 228 0.0 0.0 0.00 0.02 0.02 58 1006.8
20260504220217 72 222 0.0 2.6 0.00 0.02 0.02 59 1006.8
20260504215714 72 235 0.0 4.3 0.00 0.02 0.02 57 1007.0
20260504215212 71 223 0.0 5.2 0.00 0.02 0.02 55 1006.8
20260504214707 71 222 0.0 7.0 0.00 0.02 0.02 56 1006.9
20260504214203 72 219 7.8 11.3 0.00 0.02 0.02 57 1007.0
20260504213700 73 209 0.9 5.2 0.00 0.02 0.02 57 1006.9
20260504213157 72 223 2.6 4.3 0.00 0.02 0.02 59 1007.0
20260504212653 71 217 3.5 12.2 0.00 0.02 0.02 59 1007.1
20260504212150 71 224 5.2 7.8 0.00 0.02 0.02 58 1007.2
20260504211648 71 246 5.2 7.0 0.00 0.02 0.02 57 1007.7
20260504211144 71 258 4.3 8.7 0.00 0.02 0.02 59 1007.3
20260504210642 71 242 2.6 8.7 0.00 0.02 0.02 59 1007.8
20260504210138 71 226 6.1 7.8 0.00 0.02 0.02 58 1007.6
20260504205636 71 236 4.3 12.2 0.00 0.02 0.02 60 1007.9
20260504205132 71 244 6.1 8.7 0.00 0.02 0.02 58 1007.7
20260504204631 71 209 7.8 13.0 0.00 0.02 0.02 60 1007.9
20260504204130 70 252 9.6 17.4 0.00 0.02 0.02 58 1007.9
20260504203628 70 233 8.7 12.2 0.00 0.02 0.02 61 1008.0
20260504203125 70 228 10.4 14.8 0.00 0.02 0.02 62 1007.7
20260504202620 69 248 9.6 17.4 0.00 0.02 0.02 64 1007.7
20260504202117 69 212 8.7 13.0 0.00 0.02 0.02 61 1008.0
20260504201614 69 226 4.3 7.8 0.00 0.02 0.02 66 1008.2
20260504201112 69 252 5.2 7.8 0.00 0.02 0.02 66 1008.3
20260504200609 68 243 5.2 7.8 0.00 0.02 0.02 69 1008.3
20260504200105 68 214 3.5 8.7 0.00 0.02 0.02 67 1008.3
20260504195601 69 221 5.2 6.1 0.00 0.02 0.02 70 1008.4
20260504195057 68 216 2.6 6.1 0.00 0.02 0.02 71 1008.4
20260504194554 67 227 4.3 6.1 0.00 0.02 0.02 75 1008.2
20260504194049 66 231 5.2 6.1 0.00 0.02 0.02 73 1008.3
20260504193546 65 234 4.3 6.1 0.00 0.02 0.02 75 1008.6
20260504193045 64 208 4.3 5.2 0.00 0.02 0.02 75 1008.5
20260504192543 64 238 4.3 7.0 0.00 0.02 0.02 75 1008.6
20260504192041 63 213 5.2 7.8 0.00 0.02 0.02 77 1008.5
20260504191538 63 224 5.2 8.7 0.00 0.02 0.02 76 1008.6
20260504191034 63 217 6.1 12.2 0.00 0.02 0.02 74 1008.2
20260504190531 63 203 5.2 12.2 0.05 0.02 0.02 77 1008.6
20260504190027 63 219 13.0 18.2 0.12 0.02 0.02 73 1008.4
20260504185524 64 228 8.7 9.6 0.07 0.01 0.01 74 1008.9
20260504185020 64 219 4.3 6.1 0.00 0.00 0.00 73 1008.9
20260504184516 64 244 5.2 8.7 0.00 0.00 0.00 74 1009.1
20260504184012 64 192 7.0 8.7 0.00 0.00 0.00 73 1009.4
20260504183509 66 207 7.0 7.8 0.00 0.00 0.00 68 1009.5
20260504183008 67 183 7.8 9.6 0.00 0.00 0.00 63 1009.8
20260504182503 67 227 7.8 11.3 0.00 0.00 0.00 62 1009.5
20260504182001 67 235 8.7 22.6 0.00 0.00 0.00 63 1009.0
20260504181458 68 221 10.4 20.9 0.00 0.00 0.00 61 1009.2
20260504180956 68 241 12.2 14.8 0.00 0.00 0.00 60 1009.0
20260504180455 69 223 14.8 18.2 0.00 0.00 0.00 58 1008.9
20260504175953 69 243 7.8 13.9 0.00 0.00 0.00 60 1008.5
20260504175450 69 217 9.6 13.9 0.00 0.00 0.00 59 1008.6
20260504174947 70 217 10.4 13.0 0.00 0.00 0.00 59 1008.5
20260504174445 70 215 7.8 9.6 0.00 0.00 0.00 61 1008.5
20260504173942 69 191 6.1 12.2 0.00 0.00 0.00 62 1008.4
20260504173438 69 209 5.2 11.3 0.00 0.00 0.00 63 1008.4
20260504172936 69 196 8.7 11.3 0.00 0.00 0.00 62 1008.2
20260504172431 69 189 6.1 7.8 0.00 0.00 0.00 63 1008.1
20260504171928 69 204 3.5 6.1 0.00 0.00 0.00 65 1008.3
20260504171425 69 208 4.3 8.7 0.00 0.00 0.00 63 1008.4
20260504170922 68 232 5.2 8.7 0.00 0.00 0.00 68 1008.5
20260504170418 68 207 4.3 11.3 0.00 0.00 0.00 66 1008.7
20260504160338 65 235 4.3 6.1 0.00 0.00 0.00 67 1009.2
20260504150802 63 202 5.2 8.7 0.00 0.00 0.00 67 1009.1
20260504150259 64 225 4.3 7.0 0.00 0.00 0.00 67 1009.3
20260504141229 61 223 2.6 7.8 0.00 0.00 0.00 68 1009.2
20260504140725 61 206 7.8 11.3 0.00 0.00 0.00 70 1009.5
20260504140221 60 214 8.7 11.3 0.00 0.00 0.00 70 1009.3
20260504130649 56 193 4.3 7.0 0.00 0.00 0.00 72 1009.7
20260504130146 56 206 4.3 7.8 0.00 0.00 0.00 72 1009.7
20260504120110 53 219 5.2 7.0 0.00 0.00 0.00 73 1009.8
20260504110537 52 220 4.3 7.0 0.00 0.00 0.00 72 1010.0
20260504100454 50 213 0.9 2.6 0.00 0.00 0.00 74 1009.8
20260504081847 51 211 1.7 4.3 0.00 0.00 0.00 69 1010.5
20260504081343 51 206 3.5 4.3 0.00 0.00 0.00 70 1010.7
20260504080839 51 230 2.6 2.6 0.00 0.00 0.00 69 1010.7
20260504080337 51 216 2.6 5.2 0.00 0.00 0.00 69 1010.7